Theta_e
349 344 341 333 319 318 312 314 322 319 319 326 327 324 321 322 319 314 338 344 346 346 349 348 352 352 352 352 351 351 351 350 349 348 347 347 347 346 347 347 348 351 353 353 354 353 353 354 355
344 335 333 328 315 309 309 318 318 322 326 329 328 326 322 319 327 327 335 345 346 347 349 349 351 351 351 351 350 349 349 348 347 347 346 346 346 346 345 345 345 346 347 351 351 352 351 351 351
337 334 326 320 314 309 310 319 322 324 327 327 324 329 326 322 328 332 341 346 346 347 349 350 349 349 348 347 347 346 346 346 346 345 344 342 344 344 344 344 344 344 344 344 346 349 349 348 349
332 330 326 315 312 315 317 320 323 323 326 327 327 322 330 337 333 339 344 345 344 343 343 344 345 343 342 341 340 339 338 338 338 339 340 344 343 343 343 344 344 343 344 344 343 342 343 344 345
331 325 316 313 313 317 320 322 324 322 323 324 325 321 324 334 342 343 342 340 338 338 339 340 342 341 340 340 339 339 338 337 337 338 339 339 338 339 340 342 342 342 342 343 343 343 343 340 340
322 322 312 309 312 317 321 325 325 323 323 324 324 323 325 338 339 340 337 335 332 330 330 332 337 338 337 337 338 337 338 339 337 337 335 336 336 336 336 338 340 341 341 342 341 342 342 343 341
318 318 311 312 312 314 320 326 323 322 322 322 327 321 327 332 337 337 333 330 327 325 325 326 328 329 333 335 334 334 333 334 334 333 333 334 332 333 334 334 334 334 335 336 338 339 339 340 340
322 320 312 312 311 313 322 324 326 323 323 330 330 320 322 331 336 334 323 324 324 325 325 326 327 326 326 327 330 330 330 331 331 331 331 329 327 327 328 329 329 329 330 330 332 334 336 339 339
323 315 311 311 312 318 326 321 326 329 325 326 327 329 333 334 333 321 321 321 323 322 325 326 326 327 327 326 326 324 325 326 326 326 325 323 324 323 322 323 325 325 326 327 327 329 331 331 334
320 316 312 317 319 321 324 323 324 323 323 322 324 331 334 332 322 317 318 318 320 323 324 325 326 324 323 322 325 325 322 325 325 323 323 321 321 321 319 318 319 320 322 323 323 324 327 327 330
322 315 318 319 325 326 323 322 324 321 317 322 322 325 329 327 321 320 319 318 319 323 322 321 322 322 320 320 321 322 324 324 322 321 320 321 319 320 318 318 317 318 318 318 319 320 321 326 327
319 322 323 323 325 323 320 323 320 320 320 327 328 329 324 321 317 319 319 318 319 321 319 320 319 320 321 319 320 321 322 322 320 319 320 319 317 318 318 318 318 318 317 317 317 317 321 322 325
321 321 323 324 323 322 323 319 318 315 319 328 325 324 323 319 320 320 320 320 321 319 322 318 320 321 320 319 319 320 321 320 319 319 319 318 317 318 318 318 318 319 319 318 317 317 318 320 322
323 323 322 323 322 321 319 318 319 315 320 321 323 318 317 318 319 318 318 319 323 324 322 317 319 321 320 319 319 319 321 321 320 319 318 318 319 319 318 318 318 318 319 319 318 318 318 318 320
322 318 320 320 320 318 321 314 313 316 317 315 315 316 317 318 319 318 320 321 324 325 322 317 317 319 320 320 319 319 320 319 319 319 318 318 319 320 320 318 318 318 319 320 319 319 318 317 318
316 316 312 314 320 319 320 308 314 318 315 312 314 316 315 317 321 324 323 323 325 323 320 318 317 317 319 319 319 318 319 318 320 320 318 319 319 320 320 318 318 319 319 319 318 318 316 316 316
312 308 306 310 318 318 316 309 316 319 317 314 315 316 316 320 322 322 323 325 324 322 320 317 316 317 318 318 319 320 320 319 319 319 318 319 319 319 320 319 318 320 318 318 318 318 317 315 315
306 306 307 308 313 316 311 311 316 319 317 313 313 315 318 319 319 322 324 323 321 320 318 316 317 317 317 319 320 321 320 319 319 318 319 320 320 319 320 319 320 319 317 318 318 318 318 317 316
310 309 307 309 314 312 310 310 312 317 317 314 315 314 315 318 322 323 324 321 320 320 318 319 317 317 317 317 316 316 315 317 318 319 319 320 320 320 320 318 319 319 318 318 319 317 316 315 317
312 309 307 309 312 311 309 308 311 313 313 317 317 317 317 318 320 322 324 321 320 321 323 321 320 318 319 319 320 319 318 318 317 318 320 320 320 319 319 319 318 319 317 319 319 316 312 314 317
310 308 307 308 310 312 309 305 307 312 314 315 317 319 319 318 319 321 323 323 322 323 325 323 321 319 319 319 319 319 319 318 317 317 317 318 319 319 319 320 319 318 318 317 319 318 313 310 314
306 311 311 309 307 302 307 300 305 309 311 312 315 317 318 320 321 323 324 324 324 325 326 324 322 318 319 319 318 317 315 313 316 316 317 318 319 319 319 320 319 319 318 319 319 319 315 312 310
307 313 311 309 305 304 301 299 302 308 306 311 314 316 318 319 320 322 323 325 326 326 324 323 322 320 320 318 318 316 316 316 316 317 318 319 319 320 318 319 319 319 319 320 320 320 314 316 313
313 309 307 306 303 297 299 299 300 305 307 310 313 316 318 319 320 321 323 325 325 325 322 322 320 320 319 318 318 318 316 317 316 317 316 316 317 318 320 319 319 320 320 319 319 319 315 318 316
310 306 299 296 296 296 301 298 300 306 309 311 312 315 318 320 320 321 322 323 324 322 320 319 319 318 318 317 318 317 317 319 318 317 316 316 316 316 318 320 319 319 320 320 320 320 316 320 317
307 303 297 290 291 296 300 295 300 307 311 313 314 315 317 318 320 320 321 322 322 320 320 318 318 317 317 316 317 317 318 317 318 318 318 317 316 316 319 319 319 319 320 321 321 318 317 319 316
304 303 303 298 297 296 299 300 304 306 308 311 312 313 312 314 317 318 320 320 318 319 320 318 317 317 316 315 316 317 318 320 319 320 320 317 319 317 317 318 318 319 320 320 321 319 319 319 315
307 306 299 301 291 289 294 295 297 300 301 304 305 306 308 312 313 315 317 319 320 318 318 318 318 316 315 315 316 316 317 317 320 320 320 318 317 319 318 317 318 318 319 318 319 319 321 319 315
304 303 302 301 299 293 292 294 301 299 301 304 306 308 309 310 312 313 312 313 314 316 314 315 315 315 313 313 315 317 317 315 316 318 318 316 316 316 316 317 318 317 318 317 317 320 318 319 319
304 302 301 297 294 297 296 294 303 304 306 307 307 309 311 312 312 313 313 314 315 314 313 312 313 310 311 312 312 316 316 316 315 317 319 318 316 317 319 319 316 316 317 315 313 317 316 317 316
Wind_Speed
10 6 4 2 1 6 5 7 4 9 4 3 5 5 9 9 5 7 1 4 8 11 8 11 14 14 14 14 15 14 14 14 14 15 15 14 15 15 15 16 16 16 16 10 10 9 7 7 6
7 4 2 2 4 6 4 7 12 9 11 10 9 5 5 6 5 4 1 6 10 10 8 9 15 16 16 17 16 15 14 15 15 14 14 13 14 14 15 16 15 15 15 16 14 13 11 8 6
3 1 1 4 3 5 7 11 10 7 4 4 5 5 4 4 4 3 3 11 13 14 12 14 18 17 17 17 16 16 15 14 14 13 13 12 11 12 12 13 13 14 14 15 14 13 11 9 8
1 2 4 5 13 3 6 6 2 5 5 5 8 9 6 5 4 7 11 13 15 14 14 17 18 18 18 18 17 16 16 15 14 13 13 15 13 12 11 11 11 11 12 12 12 12 12 11 10
2 2 5 6 6 4 3 2 2 5 4 4 3 8 6 7 12 13 13 13 15 14 13 16 18 19 18 17 16 15 14 14 14 13 14 14 13 15 15 13 12 12 12 11 11 10 9 8 8
1 2 5 6 5 3 2 4 7 5 6 8 9 9 5 10 12 11 13 14 14 14 12 12 16 17 18 16 14 15 13 12 13 13 12 13 13 14 14 14 14 13 13 12 11 10 9 8 7
2 3 5 8 6 3 4 5 7 7 8 5 5 6 5 8 12 12 12 13 13 13 12 11 12 13 15 15 14 14 13 10 9 9 10 12 13 14 14 14 14 13 13 13 12 10 8 8 5
3 3 4 3 6 3 7 3 6 4 5 4 3 5 6 7 14 12 12 12 12 12 12 11 10 10 9 9 13 11 11 10 10 10 11 11 10 12 12 12 13 13 12 11 11 11 11 10 7
2 4 4 4 5 5 9 3 2 3 7 5 3 2 14 16 14 13 12 11 12 10 10 10 10 9 7 7 7 6 7 7 7 7 9 7 6 6 8 10 13 14 15 14 12 11 9 9 3
2 2 4 1 3 6 8 3 6 3 7 5 6 14 17 16 12 12 11 9 10 11 10 8 8 8 7 6 7 6 5 5 5 6 6 5 5 5 6 6 9 10 12 13 13 12 10 4 4
4 4 6 4 9 12 7 6 2 7 4 4 9 15 14 12 12 12 11 10 9 8 7 7 7 8 9 7 5 3 3 3 4 6 5 5 4 5 5 4 5 6 8 6 9 9 7 7 4
6 7 4 8 8 7 5 6 5 5 4 7 13 14 12 11 9 8 10 9 9 8 5 6 8 7 7 5 6 5 3 3 3 5 6 4 4 5 5 5 6 5 5 6 6 6 8 9 8
9 7 8 11 13 11 10 9 5 5 3 9 13 10 11 9 5 7 6 4 7 6 5 6 6 7 5 6 5 5 4 3 3 3 5 4 4 4 5 5 5 5 5 5 6 7 7 8 9
5 11 12 8 9 7 8 6 1 5 6 10 9 8 9 11 8 6 2 2 5 6 5 4 6 5 5 5 5 3 3 2 2 3 4 4 4 4 5 5 5 6 6 6 6 6 7 7 8
8 9 8 8 4 5 4 8 7 7 8 10 9 9 10 8 11 11 9 7 7 5 5 1 3 4 5 5 5 3 3 3 2 2 4 5 5 4 5 4 5 5 6 8 6 7 7 7 7
2 3 3 5 3 2 6 4 6 6 9 8 9 8 7 8 9 6 5 8 7 4 5 3 2 4 5 4 4 4 4 4 3 2 3 5 5 5 5 5 5 6 6 6 6 6 7 7 7
3 0 2 3 5 4 4 5 7 6 7 8 8 10 9 11 9 8 8 9 5 4 5 3 3 5 5 3 2 3 4 4 4 3 4 5 5 6 5 5 5 6 5 6 5 7 7 7 7
3 4 4 3 4 8 8 7 6 7 7 8 7 6 9 10 10 10 6 4 1 4 3 0 1 1 2 1 2 2 3 4 3 3 4 5 4 5 5 5 6 6 6 7 7 8 7 7 7
6 6 7 5 4 8 8 7 3 3 4 8 7 6 8 9 8 8 6 6 0 6 5 5 3 1 3 3 4 4 5 5 4 4 5 6 5 6 5 5 6 7 7 8 8 7 7 6 4
10 15 7 6 4 4 6 5 4 3 2 3 9 11 9 5 5 5 7 6 5 12 9 8 5 0 3 2 1 3 4 4 5 5 5 5 7 6 6 6 6 6 7 7 7 6 4 5 3
5 3 10 7 10 6 6 3 1 4 3 3 5 8 9 9 7 6 9 11 10 12 11 9 6 5 4 4 3 3 3 4 3 4 5 6 7 6 7 6 6 6 5 6 6 5 4 4 4
5 4 13 16 10 3 2 1 2 3 5 5 6 7 10 10 8 5 10 12 13 12 10 9 7 6 5 3 3 4 5 6 5 5 5 5 5 6 6 5 5 6 5 6 5 4 4 5 6
4 6 12 12 6 7 3 4 3 3 1 4 3 7 9 9 9 9 10 12 12 9 11 8 7 7 4 4 4 4 6 5 6 5 7 5 5 5 5 5 6 6 5 5 7 7 4 4 5
14 14 10 5 3 4 3 3 3 1 3 5 4 4 7 9 10 11 10 9 10 6 6 7 7 6 4 5 4 6 7 8 7 7 6 5 5 5 5 6 6 6 6 7 7 7 5 5 4
5 7 2 5 5 1 2 2 3 4 3 4 9 9 6 6 9 10 8 9 8 7 6 6 8 7 5 5 5 6 7 7 8 7 5 7 6 6 6 6 7 6 7 7 7 6 5 6 5
7 3 4 7 6 3 3 3 4 6 4 3 5 6 5 5 6 8 8 9 8 6 7 8 9 7 5 5 5 5 6 5 5 5 5 5 6 6 6 6 7 6 6 7 7 5 5 4 4
3 3 3 5 1 3 2 3 1 4 8 9 12 14 15 14 11 9 8 7 6 8 9 7 7 7 5 5 4 5 5 6 5 5 4 4 4 5 5 7 7 6 7 7 8 5 4 3 2
5 5 3 1 3 2 3 2 2 12 12 12 15 15 15 14 15 14 14 14 11 10 7 7 7 8 6 6 5 5 5 6 6 6 6 5 5 5 6 7 8 6 7 7 8 7 5 5 2
1 1 5 3 3 3 1 3 8 6 7 9 10 11 13 14 14 15 15 16 13 10 7 7 7 9 9 6 6 5 6 6 7 8 6 5 5 6 5 7 7 6 7 7 7 6 6 6 5
3 4 3 4 4 2 3 3 5 5 6 7 10 11 11 11 13 13 11 13 14 13 10 8 7 6 7 8 8 7 6 4 7 10 9 7 7 7 6 6 6 6 5 5 6 6 6 6 7
Wind_Direction
138 127 145 203 75 64 68 78 55 120 87 45 67 37 83 43 0 107 297 341 80 69 62 82 88 83 79 72 65 63 68 66 62 58 49 43 41 39 37 36 30 23 24 18 34 38 35 72 73
149 162 150 94 85 95 49 72 80 83 111 102 85 104 60 72 53 81 113 62 79 82 74 78 77 75 70 65 63 63 59 59 58 54 50 41 37 33 31 31 30 27 23 26 29 26 26 28 32
138 43 65 64 80 90 108 84 109 90 70 126 119 61 74 86 103 98 114 97 85 79 80 75 72 71 69 67 62 58 55 52 47 50 48 36 42 38 31 27 24 22 20 19 24 25 25 23 19
203 127 98 65 98 98 130 147 86 142 99 77 108 90 95 41 113 119 110 91 82 75 74 72 72 71 66 62 58 57 56 53 48 43 38 43 47 36 29 24 24 19 15 14 12 13 17 14 9
59 109 83 94 85 131 141 152 140 146 116 113 168 117 80 62 108 110 98 93 88 81 73 75 68 65 59 57 54 50 45 44 38 45 46 48 41 39 33 30 27 21 14 13 6 3 3 5 0
56 89 108 105 101 118 115 143 143 131 112 102 109 108 74 128 109 101 101 94 90 88 83 75 72 68 61 56 51 43 37 36 41 43 40 41 38 41 41 38 31 26 19 13 4 356 350 345 341
40 60 105 118 140 174 135 126 119 127 126 90 94 107 106 129 109 109 100 95 91 89 81 79 78 66 61 64 61 57 52 52 55 54 52 45 40 32 33 33 30 23 22 16 11 354 339 337 316
100 69 98 83 161 112 133 105 102 133 88 88 15 116 139 127 123 111 102 95 92 84 78 73 68 64 59 56 49 48 46 57 66 69 63 54 49 37 29 20 19 8 7 7 8 8 2 343 326
129 108 124 153 170 136 154 131 71 78 111 75 37 96 123 134 128 116 105 94 97 84 74 69 61 56 44 39 36 33 42 63 75 79 68 63 45 33 20 19 5 356 348 347 348 351 357 353 326
51 98 100 147 119 150 151 132 131 139 136 83 107 122 133 142 134 129 123 100 87 77 69 63 49 40 24 12 9 12 28 47 50 60 58 58 48 28 8 4 1 349 343 333 334 332 327 328 324
53 70 133 100 105 133 130 122 131 143 170 147 153 142 140 142 139 132 122 117 107 99 84 63 49 30 28 19 359 7 26 59 72 60 39 39 18 15 6 353 356 350 350 335 327 321 310 319 318
102 53 95 121 114 113 102 103 97 49 351 169 156 154 140 147 145 135 143 133 124 110 97 74 51 56 44 28 17 357 5 63 67 49 26 21 7 7 0 360 351 347 349 338 337 322 318 308 306
100 122 80 103 97 91 106 85 77 50 64 134 133 147 156 129 128 55 22 84 118 124 103 67 58 54 47 41 30 27 54 67 43 34 35 13 2 356 345 346 341 341 340 337 328 327 316 310 301
95 110 111 84 90 107 112 102 110 76 118 117 135 110 83 92 84 52 311 206 161 140 105 73 76 67 46 48 36 20 24 16 6 5 8 358 351 345 350 341 341 338 341 338 326 321 312 305 297
115 93 96 43 68 109 102 70 66 111 105 105 100 90 102 105 133 172 219 232 206 148 124 114 83 67 42 35 37 25 337 332 308 337 336 342 347 347 337 344 346 346 340 330 325 320 301 293 290
101 110 156 22 11 104 322 65 126 149 136 129 126 128 128 159 193 203 261 228 209 151 176 138 57 52 35 29 28 12 356 343 326 317 329 346 347 336 330 348 347 346 329 333 332 323 314 297 289
50 88 134 118 28 117 24 124 172 169 164 167 187 180 176 205 201 226 242 220 201 192 199 181 79 40 18 9 14 6 349 327 325 307 309 339 329 336 323 336 342 332 325 323 323 319 309 310 301
184 186 111 99 56 96 90 111 147 179 179 195 220 194 213 213 219 227 228 192 187 256 234 327 53 7 325 337 23 350 334 335 301 294 332 326 324 318 313 318 328 324 327 332 335 320 312 290 298
129 138 117 106 123 69 87 108 49 222 201 220 221 195 224 223 220 230 160 130 22 271 268 257 235 349 352 356 359 345 346 331 311 314 320 325 325 323 316 322 329 339 332 331 332 328 310 308 299
138 137 122 106 142 110 143 99 120 82 46 294 228 227 228 234 241 205 173 164 209 240 245 248 240 276 295 297 335 295 307 304 317 326 323 324 331 328 322 322 322 333 327 332 337 335 312 289 297
179 190 172 147 136 102 144 135 200 205 270 293 247 250 254 266 276 248 203 199 216 241 246 245 236 222 244 267 267 262 269 273 300 344 331 338 325 321 322 321 321 324 311 317 318 321 296 293 307
232 282 154 143 171 152 247 283 253 306 303 277 259 242 250 255 258 259 223 214 231 251 250 230 216 213 229 252 285 302 307 305 316 302 315 312 312 312 312 305 316 305 302 300 314 309 276 249 275
58 112 131 140 107 147 130 251 94 297 319 4 279 249 243 243 246 263 250 239 239 250 240 216 208 217 229 251 270 285 288 291 292 298 311 317 313 307 311 320 313 307 304 314 313 310 271 270 269
124 114 99 109 138 219 92 289 94 25 343 335 349 318 266 248 244 256 270 261 252 261 255 211 209 223 232 253 253 270 293 305 306 320 308 318 316 313 329 335 309 310 325 330 317 324 286 300 298
152 168 172 217 211 359 114 193 58 327 309 299 331 331 326 277 250 261 271 249 259 258 234 222 207 225 228 264 273 294 302 304 299 314 317 314 317 317 327 328 318 328 337 333 322 322 308 306 302
157 289 292 287 284 96 160 155 86 343 287 309 306 308 325 331 293 286 296 308 289 268 257 213 225 236 225 275 294 305 312 310 314 330 316 308 312 315 316 316 313 329 338 338 334 325 321 310 328
149 242 40 110 105 217 121 151 177 45 53 12 12 8 0 353 348 325 306 308 299 276 260 246 239 240 248 274 288 294 303 306 314 313 296 304 301 313 320 315 311 338 345 341 333 332 340 340 325
33 113 222 152 228 238 148 184 42 348 359 21 27 20 14 21 25 15 357 337 323 302 299 278 248 252 253 261 259 277 290 286 281 278 289 294 291 295 308 311 311 327 337 349 344 326 334 336 344
4 106 67 89 346 296 216 120 1 357 35 44 43 37 28 23 21 22 17 357 345 326 318 313 292 284 277 260 264 255 280 270 276 276 270 266 276 279 302 316 301 313 330 348 343 349 339 347 352
67 44 342 291 149 57 331 111 31 56 48 30 23 7 3 12 7 9 9 341 358 349 332 302 278 264 276 280 282 264 267 270 264 266 275 275 273 277 292 294 295 310 330 344 346 354 354 1 18